Cienfuegos, Cuba

3:44 AM CST on December 11, 2019 (GMT -0500)
Jaime Gonzalez

Weather History for MUCF - October, 2019

Change the Weather History Date:

Monday, October 14, 2019

  Actual Average (WUND) Record (WUND)
Temperature  
Mean Temperature 82 °F -  
Max Temperature 89 °F - - (-1)
Min Temperature 75 °F - - (-1)
Cooling Degree Days 17    
Growing Degree Days 32 (Base 50)    
Moisture  
Dew Point 76 °F    
Average Humidity 88    
Maximum Humidity 100    
Minimum Humidity 62    
Precipitation  
Precipitation 0.00 in - - ()
Sea Level Pressure  
Sea Level Pressure 29.98 in    
Wind  
Wind Speed 6 mph ()    
Max Wind Speed 10 mph    
Max Gust Speed -    
Visibility 5.9 miles    
Events      
Averages and records for this station are not official NWS values.
T = Trace of Precipitation, MM = Missing Value Source: Averaged Metar Reports

Daily Weather History Graph

Daily Weather History Graph

Search for Another Location

Airport or City:

Astronomy

Oct. 14, 2019 Rise Set
Actual Time 7:17 AM CDT 6:57 PM CDT
Civil Twilight 6:54 AM CDT 7:20 PM CDT
Nautical Twilight 6:28 AM CDT 7:46 PM CDT
Astronomical Twilight 6:02 AM CDT 8:12 PM CDT
Moon 7:48 PM CDT (10/14) 7:50 AM CDT (10/14)
Length of Visible Light 12h 25m
Length of Day
11h 40m
Waxing Gibbous, 99% of the Moon is Illuminated
Oct 14
Waxing Gibbous
Oct 21
Last Quarter
Oct 27
New
Nov 4
First Quarter
Nov 12
Full

Hourly Weather History & Observations

Time (CDT) Temp. Heat Index Dew Point Humidity Pressure Visibility Wind Dir Wind Speed Gust Speed Precip Events Conditions
12:59 AM 77.0 °F - 75.2 °F 94% 29.98 in - East 5.8 mph - N/A   Unknown
1:59 AM 77.0 °F - 75.2 °F 94% 29.98 in - ENE 5.8 mph - N/A   Unknown
2:59 AM 77.0 °F - 75.2 °F 94% 29.95 in - ENE 6.9 mph - N/A   Unknown
3:58 AM 75.2 °F - 75.2 °F 100% 29.92 in - ENE 8.1 mph - N/A   Unknown
4:58 AM 75.2 °F - 75.2 °F 100% 29.92 in - ENE 8.1 mph - N/A   Unknown
5:59 AM 75.2 °F - 73.4 °F 94% 29.95 in - East 6.9 mph - N/A   Unknown
6:59 AM 75.2 °F - 73.4 °F 94% 29.98 in - NE 5.8 mph - N/A   Unknown
7:59 AM 75.2 °F - 75.2 °F 100% 30.01 in - ENE 8.1 mph - N/A   Unknown
8:50 AM 80.6 °F 87.1 °F 77.0 °F 89% 30.01 in 5.6 mi ENE 5.8 mph - N/A   Partly Cloudy
9:50 AM 82.4 °F 89.5 °F 75.2 °F 79% 30.01 in 6.2 mi East 9.2 mph - N/A   Partly Cloudy
11:53 AM 87.8 °F 99.7 °F 77.0 °F 70% 30.01 in 6.2 mi East 10.4 mph - N/A   Scattered Clouds
12:52 PM 89.6 °F 99.8 °F 75.2 °F 62% 29.98 in 6.2 mi East 8.1 mph - N/A   Scattered Clouds
1:50 PM 87.8 °F 97.6 °F 75.2 °F 66% 29.98 in 5.6 mi SSE 4.6 mph - N/A   Scattered Clouds
2:50 PM 87.8 °F 97.6 °F 75.2 °F 66% 29.95 in 5.6 mi Variable 2.3 mph - N/A   Scattered Clouds
3:50 PM 86.0 °F 99.3 °F 78.8 °F 79% 29.95 in 5.6 mi ENE 5.8 mph - N/A   Scattered Clouds
4:59 PM 82.4 °F 90.9 °F 77.0 °F 84% 29.95 in - South 6.9 mph - N/A   Unknown
5:59 PM 78.8 °F - 77.0 °F 94% 29.95 in - Variable 2.3 mph - N/A   Unknown
6:58 PM 78.8 °F - 77.0 °F 94% 29.95 in - East 3.5 mph - N/A   Unknown
7:58 PM 78.8 °F - 77.0 °F 94% 29.98 in - East 4.6 mph - N/A   Unknown
8:58 PM 77.0 °F - 75.2 °F 94% 30.01 in - ENE 5.8 mph - N/A   Unknown
9:59 PM 77.0 °F - 75.2 °F 94% 30.01 in - ENE 5.8 mph - N/A   Unknown
10:58 PM 75.2 °F - 75.2 °F 100% 30.04 in - East 4.6 mph - N/A   Unknown
11:58 PM 75.2 °F - 75.2 °F 100% 30.01 in - ENE 5.8 mph - N/A   Unknown